Location: Lombard
(41.8800°N, 88.0080°W)
Time: 17:44:00
(UTC-06:00)

Vanguard 3 - Pass Details

Date: 09 December 2023
Orbit: 508 x 3239 km, 33.4° (Epoch: 23 February)

Event Time Altitude Azimuth Distance (km) Brightness Sun altitude
Rises 20:34:53 0° 242° (WSW) 6,942 12.4 -46.4°
Reaches altitude 10° 20:40:08 10° 238° (WSW) 5,657 11.8 -47.3°
Enters shadow 20:50:57 40° 212° (SSW) 3,050 9.9 -49.3°
